[[{"header":{"parameterUnit":"m.s-1","parameterCategory":1,"la1":30.2991,"la2":30.254,"lo1":-89.0895,"lo2":-89.0444,"dy":0.0017,"dx":0.0017,"nx":28,"ny":28,"refTime":"2024-04-06T09:00:00:Z","depth":0,"parameterNumber":2,"parameterNumberName":"U-component_of_WINDS"},"data":[0,0,0,0,0,0,0,0,0,0,0,0,0,0,0,0,0,0,0,0,0,0,0,0,0,0,0,0,0,0,0,0,0,0,0,0,0,0,0,0,0,0,0,0,0,0,0,0,0,0,0,0,0,0,0,0,0,0,-1.6528,-1.6529,0,-1.6604,-1.6605,-1.6606,-1.6623,-1.6622,-1.6621,-1.6621,-1.6701,-1.6704,-1.6707,0,0,0,0,0,0,0,0,0,0,0,0,0,-1.6398,-1.64,-1.6528,-1.6529,-1.653,-1.6604,-1.6605,-1.6606,-1.6623,-1.6622,-1.6621,-1.6621,-1.67,-1.6704,-1.6707,0,0,0,0,0,0,0,0,0,0,0,0,0,-1.6462,-1.6401,-1.6528,-1.6547,-1.6549,-1.6604,-1.6605,-1.6607,-1.6623,-1.6622,-1.6621,-1.662,-1.6699,-1.6703,-1.6707,-1.6749,0,0,-1.6719,-1.6721,0,0,0,0,0,0,0,0,-1.6459,-1.6467,-1.6543,-1.6545,-1.6548,-1.6603,-1.6589,-1.6654,-1.6623,-1.6595,-1.6621,-1.662,-1.6669,-1.6676,-1.6692,-1.6753,-1.6756,-1.672,-1.6722,-1.6724,-1.6725,0,0,0,0,0,0,0,-1.6454,-1.6464,-1.6558,-1.6544,-1.6547,-1.6552,-1.656,-1.6601,-1.6636,-1.6597,-1.6599,-1.6607,-1.6671,-1.6688,-1.6694,-1.6757,-1.672,-1.6723,-1.6726,-1.6727,-1.6856,-1.6857,0,0,0,0,0,0,-1.6446,-1.646,-1.6556,-1.656,-1.65,-1.6555,-1.6564,-1.6586,-1.6636,-1.6642,-1.6608,-1.6608,-1.6682,-1.6689,-1.6697,-1.6749,-1.6724,-1.6728,-1.673,-1.6855,-1.6857,-1.6858,0,0,0,0,0,0,-1.6443,-1.6454,-1.6553,-1.6511,-1.6524,-1.6558,-1.6583,-1.6588,-1.6606,-1.6644,-1.665,-1.6619,-1.6681,-1.6691,-1.6736,-1.6752,-1.673,-1.6733,-1.6854,-1.6856,-1.6857,-1.6853,0,0,0,0,0,0,-1.6439,-1.6453,-1.6469,-1.6511,-1.6526,-1.6589,-1.6584,-1.659,-1.6612,-1.6613,-1.6656,-1.6662,-1.6682,-1.673,-1.674,-1.6757,-1.6736,-1.6853,-1.6855,-1.6857,-1.6852,-1.6855,-1.6857,0,0,0,0,0,-1.6435,-1.6465,-1.647,-1.6481,-1.6546,-1.659,-1.6599,-1.662,-1.6614,-1.663,-1.6654,-1.6661,-1.6749,-1.6734,-1.6746,-1.6764,-1.6852,-1.6854,-1.6857,-1.6851,-1.6854,-1.6857,0,0,0,0,0,0,-1.6425,-1.6471,-1.6476,-1.6521,-1.6552,-1.6593,-1.6614,-1.6622,-1.6655,-1.6654,-1.6679,-1.6689,-1.6732,-1.6753,-1.6736,-1.6808,-1.68,-1.6805,-1.6792,-1.6795,-1.6797,-1.6791,-1.674,0,0,0,0,0,-1.6428,-1.646,-1.6499,-1.6534,-1.6549,-1.6579,-1.6599,-1.6613,-1.6645,-1.6658,-1.6686,-1.6718,-1.6753,-1.6775,-1.681,-1.6856,-1.6865,-1.6874,-1.6876,-1.6878,-1.6882,-1.6907,-1.6912,-1.6865,-1.6865,-1.6865,0,0,-1.6435,-1.6464,-1.6482,-1.6533,-1.6558,-1.6591,-1.659,-1.6624,-1.6649,-1.6664,-1.6707,-1.6729,-1.6766,-1.6812,-1.6833,-1.683,-1.6897,-1.6881,-1.6882,-1.6885,-1.691,-1.6915,-1.6918,-1.6867,-1.6867,-1.6866,0,0,-1.6464,-1.6489,-1.6521,-1.6546,-1.6584,-1.6604,-1.6611,-1.6652,-1.6666,-1.671,-1.6722,-1.6752,-1.6811,-1.6838,-1.6859,-1.6898,-1.6905,-1.6908,-1.692,-1.6944,-1.6948,-1.6951,-1.6965,-1.697,-1.6912,-1.6912,-1.6912,0,-1.6467,-1.6516,-1.6537,-1.6571,-1.6593,-1.6608,-1.6641,-1.6665,-1.6712,-1.6727,-1.6723,-1.6798,-1.6825,-1.6876,-1.6885,-1.6902,-1.6912,-1.6903,-1.6946,-1.6949,-1.6953,-1.6966,-1.6971,-1.6912,-1.6912,-1.6912,-1.6912,0,-1.6519,-1.6553,-1.6575,-1.6619,-1.6644,-1.6677,-1.6704,-1.6727,-1.6738,-1.6758,-1.6803,-1.6835,-1.6876,-1.6889,-1.6901,-1.6942,-1.694,-1.6941,-1.6934,-1.6957,-1.697,-1.6975,-1.6912,-1.6912,-1.6912,-1.6912,0,0,-1.6543,-1.6599,-1.6606,-1.6626,-1.6669,-1.6696,-1.6731,-1.677,-1.6789,-1.6821,-1.6851,-1.6901,-1.6902,-1.6926,-1.6941,-1.6963,-1.6991,-1.6961,-1.6962,-1.6965,-1.7039,-1.7037,-1.7043,-1.6997,-1.6998,-1.6998,-1.7035,0,-1.6577,-1.6638,-1.6658,-1.6709,-1.674,-1.6755,-1.6785,-1.6815,-1.6835,-1.6865,-1.6888,-1.6922,-1.6921,-1.6936,-1.6958,-1.6983,-1.7006,-1.6981,-1.7025,-1.7026,-1.7014,-1.705,-1.7048,-1.7081,-1.7041,-1.7042,-1.7042,0,-1.6624,-1.6656,-1.671,-1.6748,-1.6762,-1.6789,-1.6826,-1.6855,-1.689,-1.6903,-1.6929,-1.6943,-1.698,-1.6971,-1.7023,-1.7005,-1.7024,-1.7039,-1.7041,-1.7046,-1.7035,-1.7054,-1.7093,-1.7097,-1.705,-1.705,-1.7049,0,-1.6636,-1.6693,-1.6732,-1.6749,-1.6795,-1.6814,-1.6834,-1.6867,-1.689,-1.6923,-1.6937,-1.6975,-1.6995,-1.7024,-1.7048,-1.7039,-1.7097,-1.7091,-1.7109,-1.7109,-1.712,-1.7119,-1.7162,-1.7134,-1.7134,-1.7134,-1.7134,0,-1.6671,-1.6704,-1.6738,-1.6762,-1.6799,-1.6822,-1.6858,-1.6879,-1.6909,-1.6938,-1.6953,-1.698,-1.701,-1.7041,-1.706,-1.7099,-1.7109,-1.7121,-1.7125,-1.7119,-1.7117,-1.7132,-1.713,-1.7135,-1.7135,-1.7134,-1.7134,0,-1.6691,-1.6715,-1.6759,-1.6799,-1.6809,-1.6835,-1.6869,-1.6894,-1.6914,-1.6951,-1.6961,-1.6994,-1.7031,-1.7057,-1.7106,-1.7118,-1.7161,-1.7166,-1.7149,-1.7151,-1.7168,-1.7166,-1.7221,-1.7229,-1.7196,-1.7196,-1.7197,0,-1.6711,-1.6736,-1.6778,-1.6798,-1.6818,-1.6851,-1.6873,-1.6897,-1.692,-1.6961,-1.6981,-1.7019,-1.7051,-1.711,-1.7139,-1.7176,-1.7181,-1.7198,-1.7187,-1.718,-1.7181,-1.7179,-1.7181,-1.7199,-1.7199,-1.72,-1.72,0,-1.6745,-1.6756,-1.6787,-1.6823,-1.6849,-1.6878,-1.6908,-1.6924,-1.6953,-1.6979,-1.7017,-1.7041,-1.709,-1.7128,-1.7168,-1.719,-1.72,-1.7203,-1.7209,-1.7203,-1.7192,-1.7198,-1.7153,-1.7202,-1.7201,-1.7201,-1.7201,-1.7201,-1.6765,-1.6788,-1.6821,-1.6855,-1.688,-1.6908,-1.6932,-1.6956,-1.6987,-1.7028,-1.7041,-1.708,-1.7115,-1.7169,-1.7191,-1.7223,-1.7222,-1.7231,-1.7234,-1.7235,-1.7235,-1.7187,-1.7231,-1.7231,-1.7231,-1.7231,-1.7231,0,-1.68,-1.6821,-1.6853,-1.6893,-1.6921,-1.6927,-1.696,-1.6983,-1.7017,-1.7047,-1.7078,-1.7122,-1.7159,-1.719,-1.7228,-1.7248,-1.7253,-1.7257,-1.7256,-1.726,-1.7234,-1.7224,-1.7252,-1.7252,-1.7252,-1.7252,-1.7252,-1.7252,-1.682,-1.6859,-1.6874,-1.6925,-1.6947,-1.6985,-1.7003,-1.7029,-1.7053,-1.7101,-1.7131,-1.7151,-1.7182,-1.7223,-1.7257,-1.7265,-1.7279,-1.7281,-1.7291,-1.7265,-1.7262,-1.726,-1.7251,-1.7284,-1.7284,-1.7315,-1.7315,-1.7315]},{"header":{"parameterUnit":"m.s-1","parameterCategory":1,"la1":30.2991,"la2":30.254,"lo1":-89.0895,"lo2":-89.0444,"dy":0.0017,"dx":0.0017,"nx":28,"ny":28,"refTime":"2024-04-06T09:00:00:Z","depth":0,"parameterNumber":3,"parameterNumberName":"V-component_of_WINDS"},"data":[0,0,0,0,0,0,0,0,0,0,0,0,0,0,0,0,0,0,0,0,0,0,0,0,0,0,0,0,0,0,0,0,0,0,0,0,0,0,0,0,0,0,0,0,0,0,0,0,0,0,0,0,0,0,0,0,0,0,2.9848,2.9848,0,2.9867,2.9867,2.9867,2.9833,2.9832,2.9831,2.983,2.9847,2.9848,2.985,0,0,0,0,0,0,0,0,0,0,0,0,0,2.9781,2.9783,2.9848,2.9848,2.9849,2.9867,2.9867,2.9867,2.9833,2.9832,2.983,2.9829,2.9846,2.9848,2.985,0,0,0,0,0,0,0,0,0,0,0,0,0,2.9806,2.9783,2.9848,2.9834,2.9833,2.9867,2.9867,2.9867,2.9834,2.9832,2.983,2.9829,2.9846,2.9848,2.985,2.9898,0,0,2.9857,2.9858,0,0,0,0,0,0,0,0,2.9805,2.9809,2.9836,2.9835,2.9834,2.9846,2.985,2.9878,2.9834,2.9833,2.983,2.9828,2.9848,2.985,2.9857,2.9899,2.99,2.9857,2.9859,2.986,2.986,0,0,0,0,0,0,0,2.9803,2.9808,2.9855,2.9836,2.9835,2.9826,2.9828,2.9855,2.985,2.9833,2.9831,2.9833,2.9847,2.9855,2.9857,2.99,2.9857,2.9859,2.9861,2.9862,2.9981,2.9983,0,0,0,0,0,0,2.9804,2.9807,2.9855,2.9856,2.9815,2.9829,2.983,2.9844,2.9849,2.9849,2.9835,2.9832,2.9852,2.9855,2.9858,2.9913,2.986,2.9862,2.9863,2.9979,2.9982,2.9984,0,0,0,0,0,0,2.9802,2.9808,2.9854,2.9831,2.9836,2.9832,2.9847,2.9845,2.9853,2.9851,2.9849,2.9844,2.9851,2.9854,2.9888,2.9913,2.9863,2.9865,2.9977,2.998,2.9983,3.0026,0,0,0,0,0,0,2.98,2.9808,2.9827,2.9831,2.9837,2.9885,2.9848,2.9847,2.9857,2.9853,2.9859,2.9858,2.985,2.9885,2.9891,2.9916,2.9867,2.9975,2.9979,2.9982,3.0022,3.003,3.0036,0,0,0,0,0,2.9798,2.9838,2.9828,2.9834,2.9861,2.9887,2.989,2.988,2.9859,2.9878,2.9876,2.9858,2.991,2.9889,2.9895,2.9921,2.9973,2.9978,2.9981,3.0019,3.0028,3.0036,0,0,0,0,0,0,2.9836,2.9838,2.9827,2.987,2.9878,2.9881,2.9904,2.989,2.9904,2.99,2.9886,2.9888,2.9924,2.9926,2.9902,2.9967,2.9938,2.9944,2.9965,2.9973,2.998,2.9979,2.9869,0,0,0,0,0,2.9849,2.9871,2.9872,2.9909,2.9914,2.9908,2.9919,2.9911,2.9919,2.9922,2.9923,2.9931,2.9949,2.9961,2.9978,3.0022,3.0023,3.0043,3.005,3.0056,3.0061,3.0083,3.0092,2.9997,2.9997,2.9997,0,0,2.9877,2.9881,2.9895,2.9917,2.9922,2.9944,2.9912,2.9936,2.9952,2.9926,2.9958,2.9959,2.9967,3.0006,3.0023,3.0009,3.0087,3.0061,3.0066,3.0067,3.0088,3.0097,3.0105,3.0,2.9999,2.9999,0,0,2.9938,2.9944,2.9975,2.9982,2.9991,2.9987,2.9994,2.9999,2.9999,3.0031,3.0011,3.003,3.0061,3.0067,3.0075,3.0138,3.0122,3.0144,3.018,3.0203,3.021,3.0217,3.0239,3.0247,3.0149,3.0149,3.0149,0,2.9971,3.0004,2.9993,3.0019,3.0029,3.0006,3.0037,3.0044,3.0058,3.0064,3.0048,3.0087,3.0091,3.0131,3.0146,3.0153,3.0161,3.0143,3.021,3.0217,3.0223,3.0243,3.0252,3.0151,3.0151,3.0151,3.0151,0,3.0044,3.0067,3.0091,3.0105,3.0118,3.0146,3.0139,3.0152,3.0142,3.014,3.0172,3.0176,3.0193,3.0202,3.0192,3.024,3.0231,3.0213,3.0183,3.0234,3.0254,3.0261,3.0155,3.0154,3.0153,3.0153,0,0,3.0129,3.0137,3.0146,3.0152,3.016,3.0177,3.0204,3.0221,3.0233,3.0243,3.0265,3.0292,3.0275,3.0284,3.0275,3.0294,3.0343,3.0274,3.0273,3.0286,3.0395,3.0408,3.0418,3.0333,3.0334,3.0335,3.0394,0,3.0189,3.0237,3.0227,3.0273,3.0294,3.0273,3.0296,3.0303,3.0302,3.0318,3.0316,3.0335,3.0312,3.0317,3.0335,3.0333,3.0365,3.0329,3.0352,3.0353,3.035,3.0428,3.0442,3.0498,3.0402,3.0403,3.0404,0,3.0266,3.028,3.0328,3.0332,3.0341,3.0362,3.0376,3.0393,3.04,3.0397,3.0407,3.0394,3.042,3.0391,3.0426,3.0402,3.041,3.0411,3.0413,3.0414,3.0381,3.0431,3.0515,3.0523,3.0416,3.0415,3.0414,0,3.0323,3.0353,3.0386,3.0391,3.0398,3.0413,3.0416,3.0422,3.0432,3.0444,3.0451,3.0466,3.0474,3.0485,3.0477,3.0456,3.0513,3.0483,3.0511,3.0511,3.0523,3.0523,3.061,3.053,3.053,3.053,3.053,0,3.0391,3.0421,3.0411,3.0431,3.0464,3.0452,3.0485,3.0485,3.0491,3.051,3.0492,3.051,3.0498,3.0515,3.0508,3.0538,3.0542,3.054,3.0537,3.0541,3.0541,3.0546,3.0542,3.0532,3.0532,3.0531,3.0531,0,3.046,3.0454,3.0488,3.0491,3.0493,3.0517,3.0519,3.0537,3.0534,3.0558,3.0563,3.0558,3.0577,3.0569,3.0589,3.0585,3.0623,3.0616,3.062,3.0618,3.0646,3.0643,3.0739,3.0751,3.0664,3.0665,3.0666,0,3.0503,3.0526,3.0531,3.0543,3.0548,3.0567,3.0577,3.0567,3.0578,3.0588,3.0605,3.0622,3.0636,3.0667,3.0664,3.0679,3.0672,3.0705,3.0674,3.0677,3.0672,3.067,3.0672,3.0711,3.0712,3.0712,3.0713,0,3.0581,3.0577,3.0593,3.0608,3.0621,3.0633,3.0642,3.0653,3.0642,3.0656,3.0676,3.0686,3.0706,3.0724,3.0737,3.0739,3.0724,3.0723,3.073,3.0733,3.0735,3.0734,3.0636,3.0721,3.072,3.0719,3.0719,3.0719,3.0638,3.0657,3.0664,3.0682,3.0688,3.0697,3.0714,3.0713,3.0729,3.0745,3.0738,3.076,3.0766,3.0782,3.0787,3.0804,3.0791,3.0801,3.0804,3.0806,3.081,3.0733,3.0806,3.0806,3.0806,3.0805,3.0805,0,3.0714,3.0717,3.0734,3.0748,3.0763,3.0748,3.0757,3.077,3.079,3.0797,3.0811,3.0833,3.0849,3.0848,3.0863,3.0877,3.087,3.0881,3.088,3.088,3.0821,3.0813,3.0886,3.0886,3.0886,3.0886,3.0886,3.0886,3.0756,3.0786,3.0783,3.0817,3.0819,3.0841,3.0848,3.0856,3.0862,3.0887,3.0901,3.09,3.0904,3.0919,3.0933,3.0932,3.0938,3.0952,3.0948,3.0893,3.0885,3.0877,3.0869,3.0953,3.0953,3.1006,3.1007,3.1007]}]]